Time,TemperatureF,DewpointF,PressureIn,WindDirection,WindDirectionDegrees,WindSpeedMPH,WindSpeedGustMPH,Humidity,HourlyPrecipIn,Conditions,Clouds,dailyrainin,SoftwareType,DateUTC
2013-04-11 00:03:00,40.0,37.0,30.00,NNE,27,1.0,-999.0,89,-99.99,,,-99.99,,2013-04-11 04:03:00,
2013-04-11 00:13:00,40.0,37.0,30.00,NNE,27,1.0,-999.0,90,-99.99,,,-99.99,,2013-04-11 04:13:00,
2013-04-11 00:22:00,40.0,37.0,30.00,NNE,27,1.0,-999.0,90,-99.99,,,-99.99,,2013-04-11 04:22:00,
2013-04-11 00:33:00,40.0,37.0,30.00,NNE,23,0.0,-999.0,90,-99.99,,,-99.99,,2013-04-11 04:33:00,
2013-04-11 00:43:00,40.0,37.0,30.00,NNE,23,0.0,-999.0,90,-99.99,,,-99.99,,2013-04-11 04:43:00,
2013-04-11 00:53:00,40.0,37.0,30.00,NE,39,1.0,-999.0,90,-99.99,,,-99.99,,2013-04-11 04:53:00,
2013-04-11 01:02:00,40.0,37.0,29.99,NNE,31,1.0,-999.0,90,-99.99,,,-99.99,,2013-04-11 05:02:00,
2013-04-11 01:13:00,40.0,37.0,29.99,NNE,31,1.0,-999.0,90,-99.99,,,-99.99,,2013-04-11 05:13:00,
2013-04-11 01:22:00,40.0,38.0,30.00,ENE,64,0.0,-999.0,91,-99.99,,,-99.99,,2013-04-11 05:22:00,
2013-04-11 01:32:00,40.0,38.0,30.01,NE,35,2.0,-999.0,91,-99.99,,,-99.99,,2013-04-11 05:32:00,
2013-04-11 01:42:00,40.0,38.0,30.01,NE,35,2.0,-999.0,91,-99.99,,,-99.99,,2013-04-11 05:42:00,
2013-04-11 01:50:00,40.0,36.0,30.01,North,7,1.0,-999.0,86,-99.99,,,-99.99,,2013-04-11 05:50:00,
2013-04-11 01:52:00,39.0,36.0,30.00,NNE,32,2.0,-999.0,90,-99.99,,,-99.99,,2013-04-11 05:52:00,
2013-04-11 02:02:00,39.0,36.0,30.00,NNE,32,2.0,-999.0,90,-99.99,,,-99.99,,2013-04-11 06:02:00,
2013-04-11 02:12:00,39.0,36.0,30.00,NNE,32,2.0,-999.0,90,-99.99,,,-99.99,,2013-04-11 06:12:00,
2013-04-11 02:22:00,40.0,36.0,30.01,North,7,1.0,-999.0,86,-99.99,,,-99.99,,2013-04-11 06:22:00,
2013-04-11 02:32:00,40.0,36.0,30.01,North,7,1.0,-999.0,86,-99.99,,,-99.99,,2013-04-11 06:32:00,
2013-04-11 02:42:00,40.0,36.0,30.01,North,7,1.0,-999.0,86,-99.99,,,-99.99,,2013-04-11 06:42:00,
2013-04-11 03:02:00,40.0,35.0,30.02,NE,43,1.0,-999.0,81,-99.99,,,-99.99,,2013-04-11 07:02:00,
2013-04-11 03:12:00,40.0,35.0,30.02,NE,43,1.0,-999.0,81,-99.99,,,-99.99,,2013-04-11 07:12:00,
2013-04-11 03:22:00,40.0,34.0,30.03,NE,39,1.0,-999.0,79,-99.99,,,-99.99,,2013-04-11 07:22:00,
2013-04-11 03:32:00,40.0,34.0,30.03,NE,48,1.0,-999.0,78,-99.99,,,-99.99,,2013-04-11 07:32:00,
2013-04-11 03:43:00,40.0,34.0,30.03,NE,48,1.0,-999.0,78,-99.99,,,-99.99,,2013-04-11 07:43:00,
2013-04-11 03:52:00,40.0,33.0,30.03,West,281,2.0,-999.0,76,-99.99,,,-99.99,,2013-04-11 07:52:00,
2013-04-11 04:03:00,40.0,33.0,30.03,West,281,2.0,-999.0,76,-99.99,,,-99.99,,2013-04-11 08:03:00,
2013-04-11 04:12:00,40.0,33.0,30.03,West,281,2.0,-999.0,76,-99.99,,,-99.99,,2013-04-11 08:12:00,
2013-04-11 04:22:00,39.0,31.0,30.02,North,360,1.0,-999.0,74,-99.99,,,-99.99,,2013-04-11 08:22:00,
2013-04-11 04:32:00,39.0,30.0,30.02,ENE,59,1.0,-999.0,70,-99.99,,,-99.99,,2013-04-11 08:32:00,
2013-04-11 04:42:00,39.0,30.0,30.02,ENE,59,1.0,-999.0,70,-99.99,,,-99.99,,2013-04-11 08:42:00,
2013-04-11 04:52:00,39.0,30.0,30.03,NW,305,1.0,-999.0,70,-99.99,,,-99.99,,2013-04-11 08:52:00,
2013-04-11 05:02:00,39.0,29.0,30.02,NW,317,2.0,-999.0,68,-99.99,,,-99.99,,2013-04-11 09:02:00,
2013-04-11 05:12:00,39.0,29.0,30.02,NW,317,2.0,-999.0,68,-99.99,,,-99.99,,2013-04-11 09:12:00,
2013-04-11 05:22:00,38.0,28.0,30.03,NNW,338,1.0,-999.0,67,-99.99,,,-99.99,,2013-04-11 09:22:00,
2013-04-11 05:33:00,38.0,28.0,30.02,WNW,302,1.0,-999.0,66,-99.99,,,-99.99,,2013-04-11 09:33:00,
2013-04-11 05:43:00,38.0,28.0,30.02,WNW,302,1.0,-999.0,66,-99.99,,,-99.99,,2013-04-11 09:43:00,
2013-04-11 05:53:00,38.0,28.0,30.03,SW,231,1.0,-999.0,67,-99.99,,,-99.99,,2013-04-11 09:53:00,
2013-04-11 06:02:00,37.0,27.0,30.03,NNE,20,1.0,-999.0,68,-99.99,,,-99.99,,2013-04-11 10:02:00,
2013-04-11 06:12:00,37.0,27.0,30.03,NNE,20,1.0,-999.0,68,-99.99,,,-99.99,,2013-04-11 10:12:00,
2013-04-11 06:23:00,37.0,27.0,30.03,NNE,20,1.0,-999.0,68,-99.99,,,-99.99,,2013-04-11 10:23:00,
2013-04-11 06:32:00,37.0,27.0,30.03,NE,36,1.0,-999.0,66,-99.99,,,-99.99,,2013-04-11 10:32:00,
2013-04-11 06:42:00,37.0,27.0,30.03,NE,36,1.0,-999.0,66,-99.99,,,-99.99,,2013-04-11 10:42:00,
2013-04-11 06:52:00,37.0,27.0,30.03,NE,36,1.0,-999.0,66,-99.99,,,-99.99,,2013-04-11 10:52:00,
2013-04-11 07:03:00,37.0,27.0,30.03,NE,36,1.0,-999.0,66,-99.99,,,-99.99,,2013-04-11 11:03:00,
2013-04-11 07:12:00,37.0,26.0,30.02,NW,318,1.0,-999.0,65,-99.99,,,-99.99,,2013-04-11 11:12:00,
2013-04-11 07:23:00,37.0,26.0,30.05,WNW,302,1.0,-999.0,65,-99.99,,,-99.99,,2013-04-11 11:23:00,
2013-04-11 07:32:00,36.0,26.0,30.06,SE,130,1.0,-999.0,67,-99.99,,,-99.99,,2013-04-11 11:32:00,
2013-04-11 07:43:00,36.0,26.0,30.07,NW,318,1.0,-999.0,68,-99.99,,,-99.99,,2013-04-11 11:43:00,
2013-04-11 07:53:00,36.0,26.0,30.07,NW,318,1.0,-999.0,68,-99.99,,,-99.99,,2013-04-11 11:53:00,
2013-04-11 08:02:00,35.0,26.0,30.06,NE,48,1.0,-999.0,70,-99.99,,,-99.99,,2013-04-11 12:02:00,
2013-04-11 08:12:00,35.0,26.0,30.06,NE,48,1.0,-999.0,70,-99.99,,,-99.99,,2013-04-11 12:12:00,
2013-04-11 08:23:00,35.0,27.0,30.06,North,350,2.0,-999.0,72,-99.99,,,-99.99,,2013-04-11 12:23:00,
2013-04-11 08:32:00,35.0,27.0,30.06,North,350,2.0,-999.0,72,-99.99,,,-99.99,,2013-04-11 12:32:00,
2013-04-11 08:43:00,35.0,27.0,30.06,North,350,2.0,-999.0,72,-99.99,,,-99.99,,2013-04-11 12:43:00,
2013-04-11 08:52:00,34.0,27.0,30.09,North,7,0.0,-999.0,76,-99.99,,,-99.99,,2013-04-11 12:52:00,
2013-04-11 09:02:00,34.0,27.0,30.10,NNE,24,1.0,-999.0,75,-99.99,,,-99.99,,2013-04-11 13:02:00,
2013-04-11 09:13:00,33.0,27.0,30.10,West,263,1.0,-999.0,79,-99.99,,,-99.99,,2013-04-11 13:13:00,
2013-04-11 09:23:00,33.0,27.0,30.10,West,263,1.0,-999.0,79,-99.99,,,-99.99,,2013-04-11 13:23:00,
2013-04-11 09:32:00,32.0,27.0,30.11,NW,325,1.0,-999.0,82,-99.99,,,-99.99,,2013-04-11 13:32:00,
2013-04-11 09:43:00,32.0,27.0,30.11,NW,325,1.0,-999.0,82,-99.99,,,-99.99,,2013-04-11 13:43:00,
2013-04-11 09:54:00,32.0,29.0,30.11,WNW,287,0.0,-999.0,87,-99.99,,,-99.99,,2013-04-11 13:54:00,
2013-04-11 10:03:00,32.0,29.0,30.11,WNW,287,0.0,-999.0,87,-99.99,,,-99.99,,2013-04-11 14:03:00,
2013-04-11 10:12:00,31.0,28.0,30.13,WNW,295,1.0,-999.0,90,-99.99,,,-99.99,,2013-04-11 14:12:00,
2013-04-11 10:22:00,31.0,28.0,30.13,WNW,295,1.0,-999.0,90,-99.99,,,-99.99,,2013-04-11 14:22:00,
2013-04-11 10:33:00,31.0,29.0,30.11,NW,308,1.0,-999.0,91,-99.99,,,-99.99,,2013-04-11 14:33:00,
2013-04-11 10:42:00,31.0,29.0,30.11,NW,308,1.0,-999.0,91,-99.99,,,-99.99,,2013-04-11 14:42:00,
2013-04-11 10:52:00,31.0,29.0,30.11,NW,308,1.0,-999.0,91,-99.99,,,-99.99,,2013-04-11 14:52:00,
2013-04-11 11:02:00,30.0,28.0,30.10,WSW,240,1.0,-999.0,93,-99.99,,,-99.99,,2013-04-11 15:02:00,
2013-04-11 11:12:00,31.0,29.0,30.12,WSW,252,1.0,-999.0,94,-99.99,,,-99.99,,2013-04-11 15:12:00,
2013-04-11 11:22:00,31.0,29.0,30.12,WSW,252,1.0,-999.0,94,-99.99,,,-99.99,,2013-04-11 15:22:00,
2013-04-11 11:32:00,31.0,29.0,30.12,WSW,252,1.0,-999.0,94,-99.99,,,-99.99,,2013-04-11 15:32:00,
2013-04-11 11:43:00,31.0,29.0,30.12,WSW,252,1.0,-999.0,94,-99.99,,,-99.99,,2013-04-11 15:43:00,
2013-04-11 11:53:00,31.0,29.0,30.14,SE,135,1.0,-999.0,93,-99.99,,,-99.99,,2013-04-11 15:53:00,
2013-04-11 12:02:00,31.0,29.0,30.13,SE,146,0.0,-999.0,93,-99.99,,,-99.99,,2013-04-11 16:02:00,
2013-04-11 12:13:00,31.0,29.0,30.13,SE,146,0.0,-999.0,93,-99.99,,,-99.99,,2013-04-11 16:13:00,
2013-04-11 12:23:00,31.0,29.0,30.13,SE,146,0.0,-999.0,93,-99.99,,,-99.99,,2013-04-11 16:23:00,
2013-04-11 12:32:00,32.0,30.0,30.11,NNE,15,1.0,-999.0,92,-99.99,,,-99.99,,2013-04-11 16:32:00,
2013-04-11 12:42:00,31.0,29.0,30.11,SE,140,1.0,-999.0,92,-99.99,,,-99.99,,2013-04-11 16:42:00,
2013-04-11 12:53:00,31.0,29.0,30.11,SE,140,1.0,-999.0,92,-99.99,,,-99.99,,2013-04-11 16:53:00,
2013-04-11 13:03:00,31.0,29.0,30.11,SE,140,1.0,-999.0,92,-99.99,,,-99.99,,2013-04-11 17:03:00,
2013-04-11 13:13:00,31.0,29.0,30.11,SE,140,1.0,-999.0,92,-99.99,,,-99.99,,2013-04-11 17:13:00,
2013-04-11 13:23:00,31.0,29.0,30.09,NNW,340,2.0,-999.0,91,-99.99,,,-99.99,,2013-04-11 17:23:00,
2013-04-11 13:33:00,32.0,30.0,30.09,SW,230,1.0,-999.0,91,-99.99,,,-99.99,,2013-04-11 17:33:00,
2013-04-11 13:43:00,32.0,30.0,30.09,SW,230,1.0,-999.0,91,-99.99,,,-99.99,,2013-04-11 17:43:00,
2013-04-11 13:52:00,32.0,30.0,30.09,NNW,347,2.0,-999.0,91,-99.99,,,-99.99,,2013-04-11 17:52:00,
2013-04-11 14:03:00,32.0,30.0,30.08,SE,140,2.0,-999.0,91,-99.99,,,-99.99,,2013-04-11 18:03:00,
2013-04-11 14:13:00,32.0,30.0,30.08,SE,140,2.0,-999.0,91,-99.99,,,-99.99,,2013-04-11 18:13:00,
2013-04-11 14:23:00,32.0,29.0,30.09,West,264,1.0,-999.0,90,-99.99,,,-99.99,,2013-04-11 18:23:00,
2013-04-11 14:33:00,32.0,29.0,30.09,NW,308,2.0,-999.0,89,-99.99,,,-99.99,,2013-04-11 18:33:00,
2013-04-11 14:42:00,32.0,29.0,30.09,NW,308,2.0,-999.0,89,-99.99,,,-99.99,,2013-04-11 18:42:00,
2013-04-11 14:53:00,32.0,29.0,30.11,SSW,206,2.0,-999.0,89,-99.99,,,-99.99,,2013-04-11 18:53:00,
2013-04-11 15:03:00,32.0,29.0,30.11,ENE,71,2.0,-999.0,89,-99.99,,,-99.99,,2013-04-11 19:03:00,
2013-04-11 15:14:00,32.0,29.0,30.11,ENE,71,2.0,-999.0,89,-99.99,,,-99.99,,2013-04-11 19:14:00,
2013-04-11 15:22:00,32.0,29.0,30.11,ENE,71,2.0,-999.0,89,-99.99,,,-99.99,,2013-04-11 19:22:00,
2013-04-11 15:33:00,32.0,29.0,30.08,WSW,257,2.0,-999.0,89,-99.99,,,-99.99,,2013-04-11 19:33:00,
2013-04-11 15:43:00,32.0,29.0,30.08,WSW,257,2.0,-999.0,89,-99.99,,,-99.99,,2013-04-11 19:43:00,
2013-04-11 15:53:00,33.0,30.0,30.09,South,181,1.0,-999.0,88,-99.99,,,-99.99,,2013-04-11 19:53:00,
2013-04-11 16:03:00,33.0,30.0,30.09,South,181,1.0,-999.0,88,-99.99,,,-99.99,,2013-04-11 20:03:00,
2013-04-11 16:13:00,33.0,30.0,30.09,South,181,1.0,-999.0,88,-99.99,,,-99.99,,2013-04-11 20:13:00,
2013-04-11 16:22:00,32.0,29.0,30.08,WNW,295,2.0,-999.0,87,-99.99,,,-99.99,,2013-04-11 20:22:00,
2013-04-11 16:33:00,32.0,29.0,30.07,SE,130,2.0,-999.0,87,-99.99,,,-99.99,,2013-04-11 20:33:00,
2013-04-11 16:43:00,32.0,29.0,30.07,SE,130,2.0,-999.0,87,-99.99,,,-99.99,,2013-04-11 20:43:00,
2013-04-11 16:53:00,32.0,28.0,30.06,SE,146,1.0,-999.0,86,-99.99,,,-99.99,,2013-04-11 20:53:00,
2013-04-11 17:03:00,32.0,28.0,30.06,SE,146,1.0,-999.0,86,-99.99,,,-99.99,,2013-04-11 21:03:00,
2013-04-11 17:13:00,32.0,28.0,30.06,SE,146,1.0,-999.0,86,-99.99,,,-99.99,,2013-04-11 21:13:00,
2013-04-11 17:23:00,33.0,29.0,30.05,West,266,2.0,-999.0,84,-99.99,,,-99.99,,2013-04-11 21:23:00,
2013-04-11 17:33:00,33.0,29.0,30.05,SSE,153,2.0,-999.0,84,-99.99,,,-99.99,,2013-04-11 21:33:00,
2013-04-11 17:43:00,33.0,29.0,30.05,SSE,153,2.0,-999.0,84,-99.99,,,-99.99,,2013-04-11 21:43:00,
2013-04-11 17:53:00,33.0,29.0,30.06,SSW,200,2.0,-999.0,84,-99.99,,,-99.99,,2013-04-11 21:53:00,
2013-04-11 18:03:00,33.0,29.0,30.06,SSW,200,2.0,-999.0,84,-99.99,,,-99.99,,2013-04-11 22:03:00,
2013-04-11 18:13:00,33.0,29.0,30.06,SSW,200,2.0,-999.0,84,-99.99,,,-99.99,,2013-04-11 22:13:00,
2013-04-11 18:23:00,33.0,28.0,30.04,SSW,212,2.0,-999.0,81,-99.99,,,-99.99,,2013-04-11 22:23:00,
2013-04-11 18:33:00,33.0,28.0,30.03,SE,135,1.0,-999.0,83,-99.99,,,-99.99,,2013-04-11 22:33:00,
2013-04-11 18:44:00,33.0,28.0,30.03,SE,135,1.0,-999.0,83,-99.99,,,-99.99,,2013-04-11 22:44:00,
2013-04-11 18:53:00,33.0,29.0,30.03,NW,316,2.0,-999.0,84,-99.99,,,-99.99,,2013-04-11 22:53:00,
2013-04-11 19:03:00,33.0,28.0,30.03,West,281,1.0,-999.0,83,-99.99,,,-99.99,,2013-04-11 23:03:00,
2013-04-11 19:13:00,33.0,28.0,30.03,West,281,1.0,-999.0,83,-99.99,,,-99.99,,2013-04-11 23:13:00,
2013-04-11 19:23:00,33.0,28.0,30.03,WNW,303,2.0,-999.0,83,-99.99,,,-99.99,,2013-04-11 23:23:00,
2013-04-11 19:32:00,33.0,28.0,30.03,SW,218,1.0,-999.0,82,-99.99,,,-99.99,,2013-04-11 23:32:00,
2013-04-11 19:53:00,33.0,28.0,30.03,WNW,300,2.0,-999.0,80,-99.99,,,-99.99,,2013-04-11 23:53:00,
2013-04-11 20:02:00,34.0,28.0,30.02,WSW,248,1.0,-999.0,78,-99.99,,,-99.99,,2013-04-12 00:02:00,
2013-04-11 20:12:00,34.0,28.0,30.02,WSW,248,1.0,-999.0,78,-99.99,,,-99.99,,2013-04-12 00:12:00,
2013-04-11 20:22:00,34.0,28.0,30.02,NW,306,1.0,-999.0,77,-99.99,,,-99.99,,2013-04-12 00:22:00,
2013-04-11 20:32:00,34.0,27.0,30.01,ESE,119,2.0,-999.0,76,-99.99,,,-99.99,,2013-04-12 00:32:00,
2013-04-11 20:42:00,34.0,27.0,30.01,ESE,119,2.0,-999.0,76,-99.99,,,-99.99,,2013-04-12 00:42:00,
2013-04-11 20:52:00,34.0,27.0,30.01,East,94,1.0,-999.0,76,-99.99,,,-99.99,,2013-04-12 00:52:00,
2013-04-11 21:02:00,34.0,27.0,30.00,SSW,198,2.0,-999.0,74,-99.99,,,-99.99,,2013-04-12 01:02:00,
2013-04-11 21:12:00,34.0,27.0,30.00,SSW,198,2.0,-999.0,74,-99.99,,,-99.99,,2013-04-12 01:12:00,
2013-04-11 21:22:00,34.0,25.0,30.00,SE,145,2.0,-999.0,69,-99.99,,,-99.99,,2013-04-12 01:22:00,
2013-04-11 21:32:00,34.0,24.0,30.00,South,175,2.0,-999.0,67,-99.99,,,-99.99,,2013-04-12 01:32:00,
2013-04-11 21:42:00,34.0,24.0,30.00,South,175,2.0,-999.0,67,-99.99,,,-99.99,,2013-04-12 01:42:00,
2013-04-11 21:52:00,34.0,24.0,30.02,SW,233,1.0,-999.0,66,-99.99,,,-99.99,,2013-04-12 01:52:00,
2013-04-11 22:03:00,35.0,24.0,30.02,NNW,348,3.0,-999.0,64,-99.99,,,-99.99,,2013-04-12 02:03:00,
2013-04-11 22:12:00,35.0,24.0,30.02,NNW,348,3.0,-999.0,64,-99.99,,,-99.99,,2013-04-12 02:12:00,
2013-04-11 22:22:00,34.0,24.0,30.00,WNW,298,2.0,-999.0,66,-99.99,,,-99.99,,2013-04-12 02:22:00,
2013-04-11 22:32:00,34.0,24.0,30.00,WNW,298,2.0,-999.0,66,-99.99,,,-99.99,,2013-04-12 02:32:00,
2013-04-11 22:42:00,34.0,24.0,30.00,WNW,298,2.0,-999.0,66,-99.99,,,-99.99,,2013-04-12 02:42:00,
2013-04-11 22:52:00,34.0,24.0,29.99,ESE,106,2.0,-999.0,67,-99.99,,,-99.99,,2013-04-12 02:52:00,
2013-04-11 23:02:00,34.0,24.0,29.98,East,101,2.0,-999.0,67,-99.99,,,-99.99,,2013-04-12 03:02:00,
2013-04-11 23:12:00,34.0,24.0,29.98,East,101,2.0,-999.0,67,-99.99,,,-99.99,,2013-04-12 03:12:00,
2013-04-11 23:22:00,34.0,26.0,29.97,SSW,213,2.0,-999.0,71,-99.99,,,-99.99,,2013-04-12 03:22:00,
2013-04-11 23:33:00,34.0,27.0,29.96,ENE,68,2.0,-999.0,74,-99.99,,,-99.99,,2013-04-12 03:33:00,
2013-04-11 23:43:00,34.0,27.0,29.96,ENE,68,2.0,-999.0,74,-99.99,,,-99.99,,2013-04-12 03:43:00,
2013-04-11 23:53:00,33.0,27.0,29.93,WNW,288,2.0,-999.0,77,-99.99,,,-99.99,,2013-04-12 03:53:00,